{"data":{"norad_id":44747,"intl_designator":"2019-074AL","name":"STARLINK-1042","alt_names":[],"object_type":"PAYLOAD","status":"ACTIVE","operator":null,"country":"US","launch_date":"2019-11-11","launch_site_code":"AFETR","launch_vehicle":null,"mission":null,"orbit_class":"UNKNOWN","rcs_meters":null,"size_class":null,"mass_kg":null,"dimensions":null,"purposes":["comms"],"wikipedia_slug":null,"has_3d_model":false,"image_url":null,"decayed_at":null,"tle_current":{"epoch":"2026-05-25T02:28:15.291264Z","epoch_age_seconds":62262,"freshness":"FRESH","line1":"1 44747U 19074AL  26145.10295476  .00022836  00000+0  36140-3 0  9996","line2":"2 44747  53.0418  87.0886 0003576  62.0383 298.0988 15.53365704361934","mean_motion":15.53365704,"eccentricity":0.0003576,"inclination_deg":53.0418,"raan_deg":87.0886,"arg_perigee_deg":62.0383,"mean_anomaly_deg":298.0988,"bstar":0.0003614,"rev_number":36193,"period_min":92.70193080045,"perigee_km":404.48115891841,"apogee_km":409.33382273825,"semimajor_km":6785.0444908283,"source":"CELESTRAK","updated_at":"2026-05-25T13:38:16.373172Z"}}}